Terug naar catalogus

COSMOS 1603 DEB

ActiefLEO
NORAD 43312·DEBRIS·🇷🇺 Russia

Gelanceerd Sep 28, 1984 vanaf Baikonur Cosmodrome

Loading…

Volgende Passages (komende 24 uur)

TLE

VerouderendSource: Space-Track

Epoch: Sep 12, 2026, 20:59 UTC

1 43312U 84106AE  26255.87465514  .00000642  00000-0  31131-3 0  9996
2 43312  71.0244 191.8800 0015256  85.2451 275.0417 14.22106043547155

Volg COSMOS 1603 DEB in realtime met AllMySat

Download on the App Store